Port Kembla Harbour Observation History
Time Wind Speed Temp Pressure Rel. Hum Rain
04/08:30am W 8-11 kts 12.4°c 1032.2 hPa n/a n/a
04/08:00am WSW 8-10 kts 12.4°c 1032.0 hPa n/a n/a
04/07:30am WSW 8-11 kts 12.1°c 1031.6 hPa n/a n/a
04/07:00am SW 7-12 kts 12.1°c 1031.3 hPa n/a n/a
04/06:30am WSW 9-13 kts 12.5°c 1030.9 hPa n/a n/a
04/06:00am WSW 10-13 kts 12.5°c 1030.7 hPa n/a n/a
04/05:30am WSW 10-16 kts 12.8°c 1030.3 hPa n/a n/a
04/05:00am WSW 10-14 kts 12.7°c 1030.1 hPa n/a n/a
04/04:30am SW 9-15 kts 12.9°c 1029.9 hPa n/a n/a
04/04:00am WSW 9-16 kts 12.9°c 1029.7 hPa n/a n/a
04/03:30am WSW 11-15 kts 13.0°c 1029.7 hPa n/a n/a
04/03:00am WSW 11-15 kts 12.9°c 1029.6 hPa n/a n/a
04/02:30am WSW 11-17 kts 12.9°c 1029.6 hPa n/a n/a
04/02:00am SW 11-16 kts 12.9°c 1029.5 hPa n/a n/a
04/01:30am WSW 10-15 kts 13.0°c 1029.4 hPa n/a n/a
04/01:00am SW 10-17 kts 13.2°c 1029.5 hPa n/a n/a
04/12:30am WSW 10-16 kts 13.3°c 1029.4 hPa n/a n/a
04/12:00am SW 10-16 kts 13.2°c 1029.4 hPa n/a n/a
Time Wind Speed Temp Pressure Rel. Hum Rain
03/11:30pm SW 10-17 kts 13.3°c 1029.5 hPa n/a n/a
03/11:00pm SW 9-15 kts 13.4°c 1029.5 hPa n/a n/a
03/10:30pm SW 9-14 kts 13.5°c 1029.4 hPa n/a n/a
03/10:00pm SW 11-17 kts 13.8°c 1029.2 hPa n/a n/a
03/09:30pm SW 11-17 kts 14.0°c 1028.9 hPa n/a n/a
03/09:00pm SW 10-15 kts 14.2°c 1028.8 hPa n/a n/a
03/08:30pm SW 9-14 kts 14.3°c 1028.5 hPa n/a n/a
03/08:00pm SW 8-13 kts 14.0°c 1028.2 hPa n/a n/a
03/07:30pm SW 9-18 kts 14.3°c 1027.8 hPa n/a n/a
03/07:00pm SW 8-11 kts 14.5°c 1027.4 hPa n/a n/a
03/06:30pm SW 11-18 kts 14.7°c 1026.9 hPa n/a n/a
03/06:00pm SW 4-11 kts 14.9°c 1026.3 hPa n/a n/a
03/05:30pm SW 9-15 kts 15.4°c 1025.7 hPa n/a n/a
03/05:00pm SW 7-14 kts 15.5°c 1025.3 hPa n/a n/a
03/04:30pm SSW 7-14 kts 15.9°c 1024.7 hPa n/a n/a
03/04:00pm S 6-12 kts 16.5°c 1024.3 hPa n/a n/a
03/03:30pm S 7-17 kts 16.7°c 1023.9 hPa n/a n/a
03/03:00pm S 7-14 kts 16.7°c 1023.4 hPa n/a n/a
03/02:30pm SSW 8-18 kts 16.7°c 1023.1 hPa n/a n/a
03/02:00pm S 9-17 kts 16.9°c 1022.8 hPa n/a n/a
03/01:30pm S 9-18 kts 16.9°c 1022.4 hPa n/a n/a
03/01:00pm SSW 10-19 kts 17.2°c 1022.1 hPa n/a n/a
03/12:30pm SW 10-17 kts 17.4°c 1022.0 hPa n/a n/a
03/12:00pm WSW 14-21 kts 16.8°c 1022.0 hPa n/a n/a
03/11:30am SW 14-20 kts 16.6°c 1022.0 hPa n/a n/a
03/11:00am WSW 14-20 kts 16.7°c 1021.9 hPa n/a n/a
03/10:30am SW 14-20 kts 16.2°c 1022.0 hPa n/a n/a
03/10:00am SW 12-18 kts 16.5°c 1021.7 hPa n/a n/a
03/09:30am WSW 12-16 kts 15.9°c 1021.2 hPa n/a n/a
03/09:00am WSW 14-19 kts 15.2°c 1020.7 hPa n/a n/a
03/08:30am WSW 14-19 kts 14.9°c 1020.4 hPa n/a n/a
03/08:00am W 13-18 kts 14.4°c 1020.0 hPa n/a n/a
03/07:30am W 13-16 kts 14.1°c 1019.2 hPa n/a n/a
03/07:00am W 12-17 kts 14.0°c 1018.8 hPa n/a n/a
03/06:30am W 15-20 kts 13.8°c 1018.4 hPa n/a n/a
03/06:00am W 13-17 kts 13.8°c 1017.8 hPa n/a n/a
03/05:30am WSW 16-25 kts 13.6°c 1017.4 hPa n/a n/a
03/05:00am W 18-24 kts 13.7°c 1016.5 hPa n/a n/a
03/04:56am W 20-31 kts 13.7°c 1016.5 hPa n/a n/a
03/04:30am WSW 23-30 kts 13.8°c 1016.5 hPa n/a n/a
03/04:00am WSW 24-35 kts 14.2°c 1016.4 hPa n/a n/a
03/03:50am W 22-33 kts 14.2°c 1016.5 hPa n/a n/a
03/03:30am W 20-31 kts 13.9°c 1016.3 hPa n/a n/a
03/03:26am W 19-31 kts 14.0°c 1016.3 hPa n/a n/a
03/03:00am WNW 12-19 kts 14.1°c 1016.1 hPa n/a n/a
03/02:30am W 17-23 kts 13.8°c 1016.4 hPa n/a n/a
03/02:00am WSW 20-26 kts 14.0°c 1016.3 hPa n/a n/a
03/01:30am W 22-28 kts 13.9°c 1016.0 hPa n/a n/a
03/01:00am W 9-18 kts 13.6°c 1016.1 hPa n/a n/a
03/12:30am NW 9-18 kts 13.4°c 1016.2 hPa n/a n/a
03/12:00am W 14-20 kts 13.3°c 1016.5 hPa n/a n/a
Time Wind Speed Temp Pressure Rel. Hum Rain
02/11:30pm W 14-19 kts 12.8°c 1016.6 hPa n/a n/a
02/11:00pm W 15-21 kts 12.7°c 1016.5 hPa n/a n/a
02/10:30pm W 20-28 kts 12.6°c 1016.7 hPa n/a n/a
02/10:07pm W 16-27 kts 12.4°c 1016.6 hPa n/a n/a
02/10:00pm W 14-19 kts 12.2°c 1016.5 hPa n/a n/a
02/09:30pm W 14-19 kts 12.0°c 1016.5 hPa n/a n/a
02/09:00pm WNW 12-16 kts 11.9°c 1016.5 hPa n/a n/a
02/08:30pm WNW 12-16 kts 11.7°c 1016.5 hPa n/a n/a
02/08:00pm WNW 10-14 kts 11.7°c 1016.3 hPa n/a n/a
02/07:30pm W 11-17 kts 11.6°c 1016.1 hPa n/a n/a
02/07:00pm W 17-24 kts 11.8°c 1016.3 hPa n/a n/a
02/06:30pm W 17-25 kts 12.1°c 1015.8 hPa n/a n/a
02/06:00pm W 15-19 kts 12.3°c 1015.6 hPa n/a n/a
02/05:30pm W 16-24 kts 13.2°c 1015.4 hPa n/a n/a
02/05:00pm W 12-17 kts 13.8°c 1015.0 hPa n/a n/a
02/04:30pm W 12-16 kts 14.7°c 1014.8 hPa n/a n/a
02/04:00pm WSW 11-14 kts 14.8°c 1014.6 hPa n/a n/a
02/03:30pm WSW 15-21 kts 15.2°c 1014.3 hPa n/a n/a
02/03:00pm WSW 13-21 kts 16.0°c 1013.9 hPa n/a n/a
02/02:30pm WSW 9-14 kts 15.8°c 1013.8 hPa n/a n/a
02/02:00pm WSW 11-19 kts 15.5°c 1013.5 hPa n/a n/a
02/01:30pm SW 8-13 kts 15.5°c 1013.5 hPa n/a n/a
02/01:00pm SW 10-16 kts 15.3°c 1013.5 hPa n/a n/a
02/12:30pm WSW 13-22 kts 15.3°c 1013.2 hPa n/a n/a
02/12:14pm WSW 15-26 kts 15.1°c 1013.3 hPa n/a n/a
02/12:00pm WSW 14-23 kts 15.2°c 1013.2 hPa n/a n/a
02/11:30am WSW 18-25 kts 14.8°c 1013.3 hPa n/a n/a
02/11:00am WSW 18-26 kts 14.6°c 1013.3 hPa n/a n/a
02/10:30am WSW 16-22 kts 13.6°c 1013.2 hPa n/a n/a
02/10:00am WSW 17-25 kts 13.0°c 1013.2 hPa n/a n/a
02/09:30am WSW 16-22 kts 12.5°c 1013.1 hPa n/a n/a
02/09:00am W 14-20 kts 11.6°c 1012.9 hPa n/a n/a
02/08:30am W 14-17 kts 11.0°c 1012.7 hPa n/a n/a
02/08:00am W 13-17 kts 10.4°c 1012.8 hPa n/a n/a
02/07:30am W 13-17 kts 10.1°c 1012.8 hPa n/a n/a
02/07:00am W 11-15 kts 9.9°c 1013.1 hPa n/a n/a
02/06:30am W 11-15 kts 9.6°c 1013.1 hPa n/a n/a
02/06:00am WSW 15-24 kts 10.6°c 1012.4 hPa n/a n/a
02/05:30am WSW 19-25 kts 11.5°c 1011.7 hPa n/a n/a
02/05:09am WSW 17-27 kts 11.4°c 1011.3 hPa n/a n/a
02/05:00am WSW 15-20 kts 11.4°c 1011.2 hPa n/a n/a
02/04:30am WSW 14-19 kts 11.3°c 1010.6 hPa n/a n/a
02/04:00am W 12-18 kts 11.0°c 1010.4 hPa n/a n/a
02/03:30am W 18-23 kts 10.6°c 1010.2 hPa n/a n/a
02/03:00am W 17-23 kts 10.4°c 1010.1 hPa n/a n/a
02/02:30am W 19-28 kts 10.5°c 1010.3 hPa n/a n/a
02/02:00am W 19-27 kts 10.5°c 1010.3 hPa n/a n/a
02/01:30am W 18-26 kts 10.9°c 1010.3 hPa n/a n/a
02/01:00am W 17-23 kts 11.0°c 1010.4 hPa n/a n/a
02/12:31am W 18-28 kts 11.3°c 1010.5 hPa n/a n/a
02/12:30am W 19-28 kts 11.2°c 1010.5 hPa n/a n/a
02/12:07am W 19-31 kts 11.2°c 1010.7 hPa n/a n/a
02/12:00am W 18-24 kts 11.3°c 1010.5 hPa n/a n/a